Location: Newark
(44.4156°N, 12.1972°E)
Time: 10:00:22
(UTC+00:00)

STARLINK-1122 - Pass Details

Date: 30 January 2020
Orbit: 348 x 351 km, 53.0° (Epoch: 22 February)

Event Time Altitude Azimuth Distance (km) Brightness Sun altitude
Rises 18:17:25 0° 301° (WNW) 2,162 7.6 -21.6°
Reaches altitude 10° 18:19:27 10° 296° (WNW) 1,316 6.4 -22.0°
Enters shadow 18:21:28 36° 274° (W) 572 4.2 -22.3°
